Location: Il Ritiro
(43.4167°N, 13.1333°E)
Time: 17:02:45
(UTC+00:00)

Alouette 2 Rocket - Pass Details

Date: 05 July 2020
Orbit: 502 x 2650 km, 79.8° (Epoch: 10 August)

Event Time Altitude Azimuth Distance (km) Brightness Sun altitude
Rises 19:56:25 0° 354° (N) 2,656 7.7 -10.1°
Reaches altitude 10° 19:58:23 10° 1° (N) 1,837 6.7 -10.3°
Maximum altitude 20:02:08 47° 77° (ENE) 868 4.1 -10.8°
Enters shadow 20:06:13 15° 148° (SSE) 2,081 5.6 -11.3°
